Atmospheric History
12/06/2017 18:39  to  12/7/2017 18:39
Change End Date:
To complete the export process:
1) Select all of the data below
2) Copy the data to the clipboard
3) Open a word processor such as Notepad
4) Paste the data into the word processor
5) Save the file

Date/Time (MDT), AirTemp, RH, Dewpoint ,AvgWindSpeed, GustWindSpeed, WindDirection, PrecipType, PrecipIntensity, PrecipAccumulation, PrecipRate
12/07/2017 18:33, 40, 26, 8 ,12, 17, S, None, None, ,  
12/07/2017 18:30, 40, 26, 9 ,13, 17, S, None, None, ,  
12/07/2017 18:20, 41, 26, 9 ,14, 17, S, None, None, ,  
12/07/2017 18:18, 41, 26, 9 ,14, 17, S, None, None, ,  
12/07/2017 18:10, 41, 26, 9 ,13, 16, S, None, None, ,  
12/07/2017 18:03, 42, 26, 10 ,12, 16, S, None, None, ,  
12/07/2017 18:00, 42, 26, 10 ,12, 14, S, None, None, ,  
12/07/2017 17:49, 41, 26, 9 ,11, 14, S, None, None, ,  
12/07/2017 17:48, 41, 26, 8 ,10, 13, S, None, None, ,  
12/07/2017 17:39, 42, 25, 9 ,9, 9, S, None, None, ,  
12/07/2017 17:33, 41, 25, 9 ,3, 6, S, None, None, ,  
12/07/2017 17:29, 41, 25, 8 ,2, 6, SE, None, None, ,  
12/07/2017 17:19, 42, 24, 8 ,4, 6, SE, None, None, ,  
12/07/2017 17:18, 42, 24, 8 ,3, 7, SE, None, None, ,  
12/07/2017 17:09, 41, 24, 7 ,4, 7, SE, None, None, ,  
12/07/2017 17:03, 41, 23, 7 ,3, 9, SE, None, None, ,  
12/07/2017 16:59, 42, 23, 7 ,4, 9, SE, None, None, ,  
12/07/2017 16:49, 42, 21, 6 ,3, 7, SE, None, None, ,  
12/07/2017 16:48, 43, 21, 6 ,2, 7, E, None, None, ,  
12/07/2017 16:39, 44, 20, 6 ,4, 12, SE, None, None, ,  
12/07/2017 16:33, 44, 19, 6 ,5, 12, SE, None, None, ,  
12/07/2017 16:29, 45, 19, 6 ,4, 7, SE, None, None, ,  
12/07/2017 16:19, 47, 18, 6 ,6, 16, S, None, None, ,  
12/07/2017 16:18, 47, 18, 6 ,7, 16, S, None, None, ,  
12/07/2017 16:09, 48, 18, 7 ,9, 17, S, None, None, ,  
12/07/2017 16:03, 49, 18, 7 ,12, 22, S, None, None, ,  
12/07/2017 15:59, 50, 18, 8 ,17, 24, S, None, None, ,  
12/07/2017 15:49, 49, 17, 7 ,16, 27, S, None, None, ,  
12/07/2017 15:48, 49, 17, 7 ,17, 27, S, None, None, ,  
12/07/2017 15:39, 50, 17, 8 ,19, 27, S, None, None, ,  
12/07/2017 15:33, 50, 17, 7 ,18, 27, S, None, None, ,  
12/07/2017 15:29, 51, 17, 8 ,19, 27, S, None, None, ,  
12/07/2017 15:19, 51, 17, 8 ,24, 29, S, None, None, ,  
12/07/2017 15:18, 51, 17, 8 ,24, 29, S, None, None, ,  
12/07/2017 15:09, 51, 16, 8 ,21, 32, S, None, None, ,  
12/07/2017 15:03, 52, 16, 8 ,24, 34, S, None, None, ,  
12/07/2017 14:59, 52, 16, 8 ,25, 34, S, None, None, ,  
12/07/2017 14:49, 53, 16, 9 ,25, 32, S, None, None, ,  
12/07/2017 14:48, 53, 17, 9 ,25, 32, S, None, None, ,  
12/07/2017 14:39, 53, 17, 9 ,23, 30, S, None, None, ,  
12/07/2017 14:33, 53, 17, 9 ,22, 35, S, None, None, ,  
12/07/2017 14:28, 53, 17, 9 ,28, 35, S, None, None, ,  
12/07/2017 14:18, 52, 17, 10 ,17, 27, S, None, None, ,  
12/07/2017 14:18, 52, 17, 10 ,17, 27, S, None, None, ,  
12/07/2017 14:08, 52, 17, 10 ,21, 24, S, None, None, ,  
12/07/2017 14:03, 52, 18, 10 ,18, 29, S, None, None, ,  
12/07/2017 13:58, 52, 18, 10 ,21, 29, S, None, None, ,  
12/07/2017 13:48, 52, 18, 10 ,18, 29, S, None, None, ,  
12/07/2017 13:48, 52, 18, 10 ,17, 29, S, None, None, ,  
12/07/2017 13:38, 52, 18, 10 ,17, 29, S, None, None, ,  
12/07/2017 13:33, 52, 18, 10 ,19, 35, S, None, None, ,  
12/07/2017 13:28, 52, 18, 10 ,19, 35, S, None, None, ,  
12/07/2017 13:18, 52, 18, 10 ,19, 28, S, None, None, ,  
12/07/2017 13:18, 52, 18, 10 ,21, 28, S, None, None, ,  
12/07/2017 13:08, 52, 18, 10 ,21, 32, S, None, None, ,  
12/07/2017 13:03, 52, 18, 11 ,27, 32, S, None, None, ,  
12/07/2017 12:58, 52, 18, 11 ,21, 28, S, None, None, ,  
12/07/2017 12:48, 52, 18, 11 ,25, 31, S, None, None, ,  
12/07/2017 12:48, 52, 18, 11 ,25, 31, S, None, None, ,  
12/07/2017 12:38, 53, 19, 12 ,19, 24, S, None, None, ,  
12/07/2017 12:33, 52, 19, 12 ,17, 24, S, None, None, ,  
12/07/2017 12:28, 52, 20, 12 ,17, 22, S, None, None, ,  
12/07/2017 12:18, 52, 20, 12 ,16, 22, S, None, None, ,  
12/07/2017 12:18, 52, 20, 12 ,16, 22, S, None, None, ,  
12/07/2017 12:08, 51, 20, 12 ,16, 23, S, None, None, ,  
12/07/2017 12:03, 51, 20, 12 ,15, 21, S, None, None, ,  
12/07/2017 11:58, 51, 21, 13 ,17, 21, S, None, None, ,  
12/07/2017 11:48, 50, 21, 12 ,17, 23, S, None, None, ,  
12/07/2017 11:48, 50, 21, 12 ,18, 23, S, None, None, ,  
12/07/2017 11:38, 50, 22, 13 ,12, 21, SE, None, None, ,  
12/07/2017 11:33, 50, 22, 13 ,14, 24, SE, None, None, ,  
12/07/2017 11:28, 50, 22, 13 ,19, 25, S, None, None, ,  
12/07/2017 11:18, 50, 22, 13 ,16, 24, S, None, None, ,  
12/07/2017 11:18, 50, 22, 13 ,18, 24, S, None, None, ,  
12/07/2017 11:07, 49, 23, 14 ,18, 25, S, None, None, ,  
12/07/2017 11:03, 49, 25, 15 ,17, 25, S, None, None, ,  
12/07/2017 10:57, 49, 25, 15 ,13, 21, SE, None, None, ,  
12/07/2017 10:48, 48, 26, 15 ,17, 20, SE, None, None, ,  
12/07/2017 10:47, 48, 26, 15 ,16, 18, SE, None, None, ,  
12/07/2017 10:37, 47, 27, 15 ,12, 16, S, None, None, ,  
12/07/2017 10:33, 46, 28, 15 ,12, 16, SE, None, None, ,  
12/07/2017 10:27, 46, 28, 15 ,13, 16, S, None, None, ,  
12/07/2017 10:18, 46, 29, 16 ,12, 16, S, None, None, ,  
12/07/2017 10:17, 46, 29, 16 ,12, 16, S, None, None, ,  
12/07/2017 10:07, 46, 30, 16 ,11, 15, S, None, None, ,  
12/07/2017 10:03, 45, 30, 16 ,10, 14, S, None, None, ,  
12/07/2017 09:57, 46, 31, 17 ,7, 12, SE, None, None, ,  
12/07/2017 09:48, 44, 33, 17 ,9, 13, SE, None, None, ,  
12/07/2017 09:47, 44, 33, 17 ,9, 13, SE, None, None, ,  
12/07/2017 09:37, 44, 34, 17 ,11, 14, SE, None, None, ,  
12/07/2017 09:33, 43, 35, 17 ,11, 15, SE, None, None, ,  
12/07/2017 09:27, 42, 36, 17 ,10, 15, SE, None, None, ,  
12/07/2017 09:18, 39, 38, 16 ,7, 9, E, None, None, ,  
12/07/2017 09:17, 39, 38, 16 ,7, 9, E, None, None, ,  
12/07/2017 09:07, 38, 39, 16 ,8, 12, E, None, None, ,  
12/07/2017 09:03, 37, 40, 16 ,9, 12, SE, None, None, ,  
12/07/2017 08:57, 36, 41, 15 ,9, 11, SE, None, None, ,  
12/07/2017 08:48, 35, 43, 15 ,6, 7, SE, None, None, ,  
12/07/2017 08:47, 34, 43, 15 ,6, 7, SE, None, None, ,  
12/07/2017 08:37, 32, 45, 13 ,4, 6, E, None, None, ,  
12/07/2017 08:33, 30, 47, 13 ,3, 4, NE, None, None, ,  
12/07/2017 08:27, 30, 47, 12 ,2, 4, NE, None, None, ,  
12/07/2017 08:18, 29, 47, 11 ,2, 4, NE, None, None, ,  
12/07/2017 08:17, 29, 47, 11 ,2, 4, NE, None, None, ,  
12/07/2017 08:06, 31, 44, 11 ,3, 6, NE, None, None, ,  
12/07/2017 08:03, 32, 42, 12 ,4, 6, E, None, None, ,  
12/07/2017 07:56, 34, 41, 13 ,4, 7, SE, None, None, ,  
12/07/2017 07:48, 34, 41, 13 ,6, 11, SE, None, None, ,  
12/07/2017 07:46, 35, 41, 13 ,6, 11, SE, None, None, ,  
12/07/2017 07:36, 34, 41, 13 ,8, 10, SE, None, None, ,  
12/07/2017 07:33, 34, 41, 13 ,6, 10, SE, None, None, ,  
12/07/2017 07:26, 34, 41, 13 ,7, 11, S, None, None, ,  
12/07/2017 07:18, 34, 41, 13 ,6, 10, S, None, None, ,  
12/07/2017 07:16, 34, 41, 13 ,7, 10, S, None, None, ,  
12/07/2017 07:06, 34, 41, 13 ,4, 7, S, None, None, ,  
12/07/2017 07:03, 34, 41, 13 ,4, 7, S, None, None, ,  
12/07/2017 06:56, 34, 41, 13 ,4, 9, S, None, None, ,  
12/07/2017 06:48, 34, 41, 13 ,6, 10, S, None, None, ,  
12/07/2017 06:46, 34, 41, 13 ,6, 10, S, None, None, ,  
12/07/2017 06:36, 34, 41, 13 ,7, 10, S, None, None, ,  
12/07/2017 06:33, 34, 41, 13 ,7, 10, S, None, None, ,  
12/07/2017 06:26, 35, 40, 13 ,5, 11, S, None, None, ,  
12/07/2017 06:18, 35, 41, 14 ,9, 12, S, None, None, ,  
12/07/2017 06:16, 35, 41, 14 ,9, 12, S, None, None, ,  
12/07/2017 06:06, 35, 41, 14 ,10, 12, SE, None, None, ,  
12/07/2017 06:03, 35, 41, 14 ,10, 12, SE, None, None, ,  
12/07/2017 05:56, 35, 41, 14 ,10, 12, SE, None, None, ,  
12/07/2017 05:48, 35, 42, 14 ,9, 11, SE, None, None, ,  
12/07/2017 05:46, 34, 42, 14 ,8, 12, SE, None, None, ,  
12/07/2017 05:36, 34, 42, 14 ,7, 12, SE, None, None, ,  
12/07/2017 05:33, 34, 42, 14 ,9, 12, SE, None, None, ,  
12/07/2017 05:26, 34, 43, 14 ,9, 14, SE, None, None, ,  
12/07/2017 05:18, 34, 43, 13 ,11, 14, SE, None, None, ,  
12/07/2017 05:16, 33, 43, 13 ,9, 12, SE, None, None, ,  
12/07/2017 05:06, 33, 43, 13 ,9, 12, SE, None, None, ,  
12/07/2017 05:03, 33, 43, 13 ,10, 13, SE, None, None, ,  
12/07/2017 04:56, 34, 42, 14 ,11, 14, SE, None, None, ,  
12/07/2017 04:48, 33, 42, 13 ,9, 12, SE, None, None, ,  
12/07/2017 04:46, 33, 42, 13 ,9, 13, SE, None, None, ,  
12/07/2017 04:36, 34, 42, 13 ,10, 16, SE, None, None, ,  
12/07/2017 04:33, 34, 42, 14 ,10, 17, SE, None, None, ,  
12/07/2017 04:26, 35, 42, 14 ,14, 19, SE, None, None, ,  
12/07/2017 04:18, 34, 42, 14 ,14, 17, SE, None, None, ,  
12/07/2017 04:16, 34, 42, 14 ,13, 16, SE, None, None, ,  
12/07/2017 04:05, 34, 43, 14 ,12, 16, SE, None, None, ,  
12/07/2017 04:03, 34, 44, 14 ,13, 16, SE, None, None, ,  
12/07/2017 03:55, 31, 45, 12 ,9, 11, SE, None, None, ,  
12/07/2017 03:48, 31, 45, 12 ,6, 9, SE, None, None, ,  
12/07/2017 03:45, 31, 45, 12 ,7, 10, SE, None, None, ,  
12/07/2017 03:35, 32, 45, 13 ,8, 11, SE, None, None, ,  
12/07/2017 03:33, 31, 46, 13 ,7, 11, SE, None, None, ,  
12/07/2017 03:25, 30, 47, 12 ,9, 10, SE, None, None, ,  
12/07/2017 03:18, 29, 47, 11 ,6, 9, SE, None, None, ,  
12/07/2017 03:15, 29, 47, 11 ,7, 9, SE, None, None, ,  
12/07/2017 03:05, 28, 47, 10 ,7, 8, SE, None, None, ,  
12/07/2017 03:03, 28, 46, 10 ,7, 8, SE, None, None, ,  
12/07/2017 02:55, 29, 46, 11 ,7, 8, SE, None, None, ,  
12/07/2017 02:48, 29, 46, 11 ,6, 9, E, None, None, ,  
12/07/2017 02:45, 29, 46, 11 ,7, 9, SE, None, None, ,  
12/07/2017 02:35, 28, 45, 10 ,6, 9, SE, None, None, ,  
12/07/2017 02:33, 29, 45, 10 ,7, 9, SE, None, None, ,  
12/07/2017 02:25, 29, 44, 10 ,8, 9, SE, None, None, ,  
12/07/2017 02:18, 29, 43, 10 ,5, 9, SE, None, None, ,  
12/07/2017 02:15, 29, 43, 10 ,5, 11, SE, None, None, ,  
12/07/2017 02:05, 30, 42, 10 ,9, 11, SE, None, None, ,  
12/07/2017 02:03, 30, 42, 10 ,9, 11, SE, None, None, ,  
12/07/2017 01:55, 30, 41, 10 ,9, 10, SE, None, None, ,  
12/07/2017 01:48, 31, 39, 10 ,7, 9, SE, None, None, ,  
12/07/2017 01:45, 32, 39, 10 ,7, 9, SE, None, None, ,  
12/07/2017 01:35, 33, 37, 11 ,6, 11, SE, None, None, ,  
12/07/2017 01:33, 34, 37, 11 ,7, 11, SE, None, None, ,  
12/07/2017 01:25, 35, 37, 11 ,10, 13, SE, None, None, ,  
12/07/2017 01:18, 36, 36, 12 ,11, 16, SE, None, None, ,  
12/07/2017 01:15, 36, 36, 12 ,11, 16, SE, None, None, ,  
12/07/2017 01:05, 37, 36, 13 ,13, 17, SE, None, None, ,  
12/07/2017 01:03, 37, 36, 13 ,13, 17, SE, None, None, ,  
12/07/2017 00:55, 37, 36, 13 ,12, 17, SE, None, None, ,  
12/07/2017 00:48, 36, 37, 12 ,12, 17, SE, None, None, ,  
12/07/2017 00:45, 36, 37, 12 ,13, 17, SE, None, None, ,  
12/07/2017 00:34, 36, 37, 12 ,13, 17, SE, None, None, ,  
12/07/2017 00:33, 36, 37, 12 ,14, 17, SE, None, None, ,  
12/07/2017 00:24, 35, 37, 12 ,12, 17, SE, None, None, ,  
12/07/2017 00:18, 35, 37, 12 ,12, 17, SE, None, None, ,  
12/07/2017 00:14, 35, 37, 12 ,12, 17, SE, None, None, ,  
12/07/2017 00:04, 36, 37, 13 ,12, 17, SE, None, None, ,  
12/07/2017 00:03, 36, 37, 13 ,12, 17, SE, None, None, ,  
12/06/2017 23:54, 35, 38, 13 ,9, 11, SE, None, None, ,  
12/06/2017 23:48, 35, 39, 13 ,7, 11, SE, None, None, ,  
12/06/2017 23:44, 35, 39, 12 ,9, 11, SE, None, None, ,  
12/06/2017 23:34, 34, 39, 12 ,7, 9, SE, None, None, ,  
12/06/2017 23:33, 34, 39, 12 ,7, 9, SE, None, None, ,  
12/06/2017 23:24, 34, 39, 13 ,7, 11, SE, None, None, ,  
12/06/2017 23:18, 34, 39, 12 ,7, 10, SE, None, None, ,  
12/06/2017 23:14, 34, 39, 12 ,7, 10, SE, None, None, ,  
12/06/2017 23:04, 34, 39, 13 ,6, 7, SE, None, None, ,  
12/06/2017 23:03, 34, 39, 13 ,6, 8, SE, None, None, ,  
12/06/2017 22:54, 35, 39, 13 ,7, 9, SE, None, None, ,  
12/06/2017 22:48, 35, 39, 13 ,7, 8, SE, None, None, ,  
12/06/2017 22:44, 35, 39, 13 ,7, 7, SE, None, None, ,  
12/06/2017 22:34, 35, 39, 13 ,7, 9, SE, None, None, ,  
12/06/2017 22:33, 35, 39, 13 ,7, 9, SE, None, None, ,  
12/06/2017 22:24, 34, 40, 13 ,8, 9, SE, None, None, ,  
12/06/2017 22:18, 34, 41, 13 ,8, 9, SE, None, None, ,  
12/06/2017 22:14, 34, 41, 13 ,8, 9, SE, None, None, ,  
12/06/2017 22:04, 33, 42, 13 ,7, 9, SE, None, None, ,  
12/06/2017 22:03, 33, 42, 13 ,7, 8, SE, None, None, ,  
12/06/2017 21:54, 33, 42, 13 ,6, 7, E, None, None, ,  
12/06/2017 21:48, 33, 42, 12 ,6, 7, E, None, None, ,  
12/06/2017 21:44, 33, 42, 12 ,6, 7, E, None, None, ,  
12/06/2017 21:34, 33, 41, 12 ,6, 6, E, None, None, ,  
12/06/2017 21:33, 33, 41, 12 ,5, 6, E, None, None, ,  
12/06/2017 21:24, 33, 41, 12 ,6, 8, SE, None, None, ,  
12/06/2017 21:18, 33, 42, 12 ,6, 9, SE, None, None, ,  
12/06/2017 21:14, 32, 42, 12 ,7, 9, E, None, None, ,  
12/06/2017 21:04, 31, 44, 12 ,7, 7, E, None, None, ,  
12/06/2017 21:03, 31, 44, 12 ,7, 7, E, None, None, ,  
12/06/2017 20:53, 31, 44, 12 ,6, 8, E, None, None, ,  
12/06/2017 20:48, 31, 44, 12 ,6, 8, E, None, None, ,  
12/06/2017 20:43, 31, 44, 11 ,6, 7, E, None, None, ,  
12/06/2017 20:33, 31, 44, 11 ,6, 7, E, None, None, ,  
12/06/2017 20:33, 31, 44, 11 ,6, 7, E, None, None, ,  
12/06/2017 20:23, 30, 44, 11 ,6, 7, E, None, None, ,  
12/06/2017 20:18, 30, 44, 11 ,6, 7, E, None, None, ,  
12/06/2017 20:13, 30, 44, 11 ,6, 7, E, None, None, ,  
12/06/2017 20:03, 30, 44, 11 ,6, 6, SE, None, None, ,  
12/06/2017 20:03, 30, 44, 11 ,6, 6, SE, None, None, ,  
12/06/2017 19:53, 30, 44, 11 ,3, 4, E, None, None, ,  
12/06/2017 19:48, 30, 44, 11 ,3, 6, SE, None, None, ,  
12/06/2017 19:43, 30, 44, 11 ,4, 6, SE, None, None, ,  
12/06/2017 19:33, 30, 44, 11 ,2, 6, SE, None, None, ,  
12/06/2017 19:33, 30, 44, 11 ,3, 6, SE, None, None, ,  
12/06/2017 19:23, 30, 43, 11 ,4, 4, SE, None, None, ,  
12/06/2017 19:18, 30, 43, 10 ,4, 4, SE, None, None, ,  
12/06/2017 19:13, 30, 43, 10 ,3, 6, SE, None, None, ,  
12/06/2017 19:03, 29, 43, 10 ,4, 7, SE, None, None, ,  
12/06/2017 19:03, 29, 43, 10 ,4, 7, SE, None, None, ,  
12/06/2017 18:53, 29, 43, 10 ,7, 7, SE, None, None, ,  
12/06/2017 18:48, 29, 43, 10 ,7, 8, SE, None, None, ,  
12/06/2017 18:43, 29, 43, 9 ,7, 8, SE, None, None, ,  
Change End Date:

Copyright © 1998-2015 Vaisala, Inc.
All Rights Reserved
Send comments about the data to:
SCAN Web ® is a registered trademark of Vaisala, Inc.
SCAN Web Version 6.0